Weather History for KABR - September, 2013

Change the Weather History Date:

Sunday, September 8, 2013

  Actual Average Record
Temperature  
Mean Temperature 72 °F 62 °F  
Max Temperature 78 °F 76 °F 101 °F (1933)
Min Temperature 65 °F 49 °F 32 °F (1992)
Degree Days  
Heating Degree Days 0 5  
Month to date heating degree days 6 32  
Since 1 July heating degree days 57 83  
Cooling Degree Days 7 2  
Month to date cooling degree days 47 20  
Year to date cooling degree days 536 503  
Growing Degree Days 21 (Base 50)    
Moisture  
Dew Point 66 °F    
Average Humidity 86    
Maximum Humidity 100    
Minimum Humidity 71    
Precipitation  
Precipitation 0.39 in 0.08 in 3.02 in (2009)
Month to date precipitation 0.39 0.60  
Year to date precipitation 14.15 16.89  
Sea Level Pressure  
Sea Level Pressure 29.92 in    
Wind  
Wind Speed 8 mph (ENE)    
Max Wind Speed 24 mph    
Max Gust Speed 28 mph    
Visibility 9 miles    
Events Rain , Thunderstorm    
T = Trace of Precipitation, MM = Missing Value Source: NWS Daily Summary

Daily Weather History Graph

Daily Weather History Graph

Search for Another Location

Airport or City:

Trip Planner

Search our weather history database for the weather conditions in past years. The results will help you decide how hot, cold, wet, or windy it might be!

Date:

Astronomy

Sep. 08, 2013 Rise Set
Actual Time 7:03 AM CDT 7:57 PM CDT
Civil Twilight 6:33 AM CDT 8:27 PM CDT
Nautical Twilight 5:57 AM CDT 9:03 PM CDT
Astronomical Twilight 5:20 AM CDT 9:40 PM CDT
Moon 10:35 AM CDT (9/8) 9:20 PM CDT (9/8)
Length of Visible Light 13h 53m
Length of Day
12h 53m
Waxing Crescent, 11% of the Moon is Illuminated
Sep 8
Waxing Crescent
Sep 12
First Quarter
Sep 19
Full
Sep 26
Last Quarter
Oct 4
New

Hourly Weather History & Observations

Time (CDT) Temp. Dew Point Humidity Pressure Visibility Wind Dir Wind Speed Gust Speed Precip Events Conditions
12:53 AM 69.1 °F 61.0 °F 75% 29.98 in 10.0 mi NNE 8.1 mph - N/A   Clear
1:53 AM 68.0 °F 60.1 °F 76% 29.97 in 10.0 mi NNE 5.8 mph - N/A   Clear
2:53 AM 66.9 °F 61.0 °F 81% 29.96 in 10.0 mi NNE 4.6 mph - N/A   Mostly Cloudy
3:28 AM 66.2 °F 62.6 °F 88% 30.03 in 10.0 mi WNW 9.2 mph - 0.00 in Rain , Thunderstorm Light Rain
3:53 AM 66.0 °F 62.1 °F 87% 30.03 in 10.0 mi NW 15.0 mph 27.6 mph 0.02 in Rain , Thunderstorm Light Rain
4:00 AM 66.2 °F 62.6 °F 88% 30.05 in 7.0 mi NNW 19.6 mph 26.5 mph 0.00 in Rain Rain
4:11 AM 64.4 °F 64.4 °F 100% 30.03 in 7.0 mi NNW 17.3 mph - 0.04 in Rain Light Rain
4:53 AM 64.9 °F 64.9 °F 100% 29.99 in 6.0 mi ENE 9.2 mph - 0.15 in Rain Rain
5:53 AM 64.9 °F 64.0 °F 97% 29.98 in 9.0 mi ESE 4.6 mph - 0.06 in Rain Light Rain
6:53 AM 64.9 °F 64.0 °F 97% 29.96 in 10.0 mi ESE 3.5 mph - 0.04 in   Mostly Cloudy
7:53 AM 64.9 °F 64.9 °F 100% 29.95 in 10.0 mi Calm Calm - 0.00 in   Scattered Clouds
8:53 AM 66.0 °F 64.9 °F 96% 29.98 in 5.0 mi Variable 4.6 mph 16.1 mph 0.06 in Rain Light Rain
9:12 AM 66.2 °F 66.2 °F 100% 29.98 in 7.0 mi North 4.6 mph - 0.01 in Rain Light Rain
9:53 AM 66.0 °F 66.0 °F 100% 29.96 in 8.0 mi ENE 9.2 mph - 0.05 in Rain Light Rain
10:53 AM 69.1 °F 68.0 °F 96% 29.96 in 10.0 mi NE 6.9 mph - 0.00 in   Scattered Clouds
11:10 AM 69.8 °F 68.0 °F 94% 29.98 in 10.0 mi NE 8.1 mph - N/A   Mostly Cloudy
11:43 AM 69.8 °F 66.2 °F 88% 29.96 in 10.0 mi East 6.9 mph - N/A   Overcast
11:53 AM 70.0 °F 66.9 °F 90% 29.94 in 10.0 mi East 9.2 mph - N/A   Mostly Cloudy
12:05 PM 71.6 °F 68.0 °F 88% 29.95 in 10.0 mi East 8.1 mph - N/A   Scattered Clouds
12:32 PM 71.6 °F 68.0 °F 88% 29.94 in 10.0 mi East 8.1 mph - N/A   Mostly Cloudy
12:53 PM 73.0 °F 69.1 °F 87% 29.91 in 10.0 mi ESE 6.9 mph - N/A   Mostly Cloudy
1:06 PM 73.4 °F 69.8 °F 88% 29.90 in 10.0 mi ESE 9.2 mph - N/A   Scattered Clouds
1:53 PM 75.0 °F 68.0 °F 79% 29.88 in 10.0 mi ENE 8.1 mph - N/A   Clear
2:53 PM 75.0 °F 68.0 °F 79% 29.88 in 10.0 mi ESE 10.4 mph - N/A   Clear
3:53 PM 75.9 °F 68.0 °F 76% 29.86 in 10.0 mi NE 8.1 mph - N/A   Clear
4:53 PM 78.1 °F 68.0 °F 71% 29.85 in 10.0 mi ENE 10.4 mph - N/A   Clear
5:53 PM 75.9 °F 68.0 °F 76% 29.83 in 10.0 mi ENE 10.4 mph - N/A   Scattered Clouds
6:53 PM 75.0 °F 68.0 °F 79% 29.81 in 10.0 mi ENE 8.1 mph - N/A   Overcast
7:53 PM 73.0 °F 66.9 °F 81% 29.81 in 10.0 mi East 11.5 mph - N/A   Overcast
8:53 PM 70.0 °F 66.0 °F 87% 29.80 in 10.0 mi East 11.5 mph - N/A   Partly Cloudy
9:53 PM 69.1 °F 66.0 °F 90% 29.79 in 8.0 mi East 9.2 mph - N/A   Overcast
10:53 PM 68.0 °F 66.9 °F 96% 29.79 in 7.0 mi East 5.8 mph - N/A   Clear
11:53 PM 68.0 °F 66.9 °F 96% 29.76 in 6.0 mi East 8.1 mph - N/A   Clear